Location: Azul
(36.7830°S, 59.8500°W)
Time: 13:32:19
(UTC-03:00)

ISS - Pass Details

Date: 17 August 2020
Orbit: 419 x 420 km, 51.6° (Epoch: 19 September)

Event Time Altitude Azimuth Distance (km) Brightness Sun altitude
Rises 20:16:58 0° 314° (NW) 2,370 0.7 -22.4°
Reaches altitude 10° 20:19:03 10° 315° (NW) 1,512 -0.4 -22.8°
Enters shadow 20:21:15 37° 320° (NW) 676 -2.5 -23.3°
